Location: *
(51.2167°N, 10.0667°E)
Time: 10:35:59
(UTC+00:00)

Okean O Rocket - Pass Details

Date: 12 December 2019
Orbit: 624 x 644 km, 98.2° (Epoch: 23 January)

Event Time Altitude Azimuth Distance (km) Brightness Sun altitude
Rises 15:59:31 0° 169° (S) 2,895 5.2 -7.1°
Reaches altitude 10° 16:01:42 10° 172° (S) 1,993 4.4 -7.4°
Maximum altitude 16:06:01 72° 256° (WSW) 662 1.9 -8.0°
Drops below altitude 10° 16:10:24 10° 342° (NNW) 2,011 4.1 -8.6°
Sets 16:12:37 0° 344° (NNW) 2,925 4.9 -8.9°
